DELTA 1 DEB, 720

Orbit data source: Space-Track

DELTA 1 DEB, 720 is space debris in LEO originally from a launch on Sat, 21 Dec 1963 UTC launched from the Air Force Western Test Range (AFWTR). Debris objects in space refer to the collection of defunct objects orbiting the Earth. Examples of debris include non-operational satellites, rocket bodies, and fragments generated from explosions, collisions, or faulty payload assembly.

Loading next visibility...
Identifier
720, 1963-054C
Orbit
LEO
Country
Flag of USUS
Related business
Manufacturer
Unknown
Mission
Spacecraft
Bus & Motor
Unknown
Mass
~1 kg wet, ~1 kg dry
Launch date (UTC)
1963-12-21 (62 years ago)
Launch vehicle
Unknown
Launch site
Air Force Western Test Range (AFWTR)
Object type
Payload
Rocket body
Debris
Shape & HBR
Unknown
Radar Cross Section
Small (<0.1 m²)

Expand to show TLE details & history
Last TLE update: 1 day ago

TLE from 1 day ago
0 DELTA 1 DEB
1 00720U 63054C   25309.09282692  .00000507  00000-0  16074-3 0  9997
2 00720  58.4707 211.0548 0111646 133.6709 227.3641 14.50288752248978
Epoch: 2025-11-05T02:13Z
TLE epoch observation values (Epoch: 2025-11-05T02:13:40.245Z)
Latitude
Longitude
133.06666°
Altitude
780.297 km
Speed
7.436 km/s
True Right ascension
14h 04m 13s
True Declination
0° 00' 00"
Sunlit
Object was in daylight at epoch
Visualization orbit readout
Latitude
Unknown
Longitude
Unknown
Altitude
Unknown
Speed
Unknown
Apparent Right ascension
Unknown
Apparent Declination
Unknown
Sunlit
N/A
Visualization observer readout
Local Sidereal Time
22:34:39
Azimuth
Unknown
Elevation
Unknown
Doppler factor
Unknown
Orbital elements
Apogee altitude
803.447 km
Perigee altitude
644.859 km
Semi-major axis
7,102.29 km
Eccentricity
0.01116
Inclination
58.4707°
RAAN
211.0548°
Arg. of periapsis
133.6709°
True anomaly
226.43176°
Mean anomaly
227.3641°
Eccentric anomaly
226.89705°
Mean motion
3.62615 °/min
Orbital period
99.28 mins
BSTAR
0.00016074
Loading maneuver chart data...
Computing Atmospheric mass density...
Loading historical data...
Loading historical data...
Loading historical data...
Loading historical data...
Loading historical data...
Loading historical data...
Loading historical data...
Other satellites on launch #54 in the year 1963 (1963-12-21 UTC)

Documentation

Showing up to 5 results
|